AirNav   BOSE ProFlight Aviation Headset
 
 679 users online  

5M5 Crystal Lake Airport
Decatur, Arkansas, USA

GOING TO DECATUR?


FAA INFORMATION EFFECTIVE 24 MAY 2018

Location

FAA Identifier: 5M5
Lat/Long: 36-20-37.0000N / 094-26-41.4000W
36-20.616667N / 094-26.690000W
36.3436111 / -94.4448333
(estimated)
Elevation: 1177.8 ft. / 359.0 m (surveyed)
Variation: 03E (2005)
From city: 2 miles NE of DECATUR, AR
Time zone: UTC -5 (UTC -6 during Standard Time)
Zip code: 72722

Airport Operations

Airport use: Open to the public
Activation date: 11/1955
Control tower: no
ARTCC: MEMPHIS CENTER
FSS: JONESBORO FLIGHT SERVICE STATION
NOTAMs facility: JBR (NOTAM-D service available)
Attendance: UNATNDD
Wind indicator: lighted
Segmented circle: no
Lights: SS-SR

Airport Communications

CTAF/UNICOM: 122.8
RAZORBACK APPROACH: 121.0
RAZORBACK DEPARTURE: 121.0
CLEARANCE DELIVERY: 121.725
WX ASOS at XNA (8 nm SE): 119.425 (479-203-0109)
WX AWOS-3PT at SLG (9 nm S): 118.375 (479-524-9893)
WX AWOS-3PT at VBT (11 nm E): 134.975 (479-273-9198)
WX AWOS-3PT at ROG (16 nm E): 134.375 (479-631-9196)
WX AWOS-3 at ASG (19 nm SE): 124.675 (479-750-2967)
  • APCH/DEP SVC PRVDD BY MEMPHIS ARTCC ON FREQS 126.1/269.0 (FAYETTEVILLE RCAG) WHEN RAZORBACK APCH CTL CLSD.

Nearby radio navigation aids

VOR radial/distance  VOR name  Freq  Var
RZCr286/16.7RAZORBACK VORTAC116.4004E
DAKr319/21.7DRAKE VOR/DME115.2507E
EOSr174/29.9NEOSHO VOR/DME117.3007E

 
NDB name  Hdg/Dist  Freq  Var  ID
SILOAM SPRINGS009/9.528404ESLG ... .-.. --.
TAHLEQUAH042/36.921505ETQH - --.- ....

Airport Services

Parking: hangars and tiedowns
Airframe service: NONE
Powerplant service: NONE
Bulk oxygen: NONE

Runway Information

Runway 13/31

Dimensions: 3863 x 75 ft. / 1177 x 23 m
Surface: asphalt, in fair condition
Weight bearing capacity: 
Single wheel: 10.0
Runway edge lights: low intensity
Runway edge markings: NSTD THLD MARKNIGS DUE TO SIZE.
Gradient: SE.
RUNWAY 13  RUNWAY 31
Latitude: 36-20.840745N36-20.393283N
Longitude: 094-26.969522W094-26.409873W
Elevation: 1154.0 ft.1176.4 ft.
Gradient: 0.6% UP0.7%
Traffic pattern: leftleft
Runway heading: 131 magnetic, 134 true311 magnetic, 314 true
Markings: nonprecision, in good conditionnonprecision, in good condition
Visual slope indicator: 2-box VASI on left (3.50 degrees glide path)
VASI OTS INDEFLY.
2-box VASI on left (3.50 degrees glide path)
VASI OTS INDEFLY.
Touchdown point: yes, no lightsyes, no lights
Obstructions: 55 ft. trees, 450 ft. from runway, 185 ft. right of centerline, 4:1 slope to clear60 ft. trees, 720 ft. from runway, 220 ft. left of centerline, 8:1 slope to clear

Airport Ownership and Management from official FAA records

Ownership: Privately-owned
Owner: CRYSTAL LAKE FLY-IN COMMUNITY, LLC
33801 KANIS ROAD
PARON, AR 72122
Phone 501-351-4329
Manager: KRIS SHEWMAKE
33801 KANIS ROAD
PARON, AR 72722
Phone 501-351-4329

Airport Operational Statistics

Aircraft based on the field: 2
Single engine airplanes: 2
    
Aircraft operations: avg 46/month *
55% local general aviation
45% transient general aviation
* for 12-month period ending 31 July 2016

Additional Remarks

BE ALERT FOR +176 FT TWR APRXLY 1300 FT N OF RY 13.
DEER & GEESE ON & INVOF ARPT.

Instrument Procedures

NOTE: All procedures below are presented as PDF files. If you need a reader for these files, you should download the free Adobe Reader.

NOT FOR NAVIGATION. Please procure official charts for flight.
FAA instrument procedures published for use from 24 May 2018 at 0901Z to 21 June 2018 at 0900Z.

 
IAPs - Instrument Approach Procedures
RNAV (GPS) RWY 13   download (204KB)
VOR RWY 13   download (178KB)
NOTE: Special Take-Off Minimums/Departure Procedures apply   download (179KB)

Other nearby airports with instrument procedures:

KXNA - Northwest Arkansas Regional Airport (8 nm SE)
KSLG - Smith Field Airport (9 nm S)
KVBT - Bentonville Municipal Airport/Louise M Thaden Field (11 nm E)
KROG - Rogers Executive Airport - Carter Field (16 nm E)
KASG - Springdale Municipal Airport (19 nm SE)
 
Loc | Ops | Rwys | IFR | FBO | Links
Com | Nav | Svcs | Stats | Notes

AirNav Hotels Sweepstakes
 
Area around 5M5 (Crystal Lake Airport)
 
Road maps at: MapQuest Bing Google
 
Aerial photo
WARNING: Photo may not be current or correct
Aerial photo of 5M5 (Crystal Lake Airport)
Photo courtesy of the Arkansas Department of Aeronautics
Taken in the Spring of 2007

Do you have a better or more recent aerial photo of Crystal Lake Airport that you would like to share? If so, please send us your photo.

 
Sectional chart

 
Airport distance calculator
Flying to Crystal Lake Airport? Find the distance to fly.

From to 5M5

Sunrise and sunset
Times for 18-Jun-2018
 Local
(UTC-5)
 Zulu
(UTC)
Morning civil twilight05:3010:30
Sunrise06:0111:01
Sunset20:3701:37
Evening civil twilight21:0702:07

Current date and time
Zulu (UTC)  19-Jun-2018 04:29:07
Local (UTC-5)  18-Jun-2018 23:29:07
 
METAR
KXNA 
8nm SE 
190353Z 16009KT 10SM CLR 26/18 A3005 RMK AO2 SLP158 T02560183
KSLG 
9nm S 
190356Z AUTO 15006KT 10SM CLR 25/20 A3005 RMK AO2 SLP162 T02500200
KVBT 
11nm E 
190356Z AUTO 16009KT 10SM CLR 27/19 A3006 RMK AO2 SLP167 T02670194
KROG 
18nm E 
190358Z AUTO 15009KT 10SM CLR 26/19 A3006 RMK AO2 SLP161 T02610194
KASG 
19nm SE 
190148Z 15005KT 10SM SKC 28/20 A3003
TAF
KXNA 
8nm SE 
181720Z 1818/1918 18011KT P6SM BKN040 FM182200 18010KT P6SM BKN060 FM190000 17010KT P6SM SCT250 FM190800 18006KT 6SM BR BKN050 FM190900 18006KT 6SM BR OVC020 FM191500 20010KT P6SM BKN025
KROG 
18nm E 
181932Z 1820/1918 16010KT P6SM BKN040 OVC050 FM182200 17011KT P6SM SCT250 FM190900 18009KT P6SM BKN050 FM191100 17008KT P6SM OVC020 FM191700 20013G19KT P6SM OVC040
NOTAMs
Click for the latest NOTAMs
NOTAMs are issued by the DoD/FAA and will open in a separate window not controlled by AirNav.

 

 
 

Would you like to see your business listed on this page?

 If your business provides an interesting product or service to pilots, flight crews, aircraft, or users of the Crystal Lake Airport, you should consider listing it here.  To start the listing process, click on the button below
 
Add a business
 

Other Pages about Crystal Lake Airport

Update a link
 
Copyright © AirNav, LLC. All rights reserved. Privacy Policy  Contact